Tracking 19563 objects as of 20-Mar-2019
HD Live streaming from Space Station
objects crossing your sky now

RADUGA 16

Track RADUGA 16 now!
RADUGA 16 is classified as:


NORAD ID: 15946
Int'l Code: 1985-070A
Perigee: 35,761.7 km
Apogee: 35,792.8 km
Inclination: 13.7 °
Period: 1,435.3 minutes
Semi major axis: 42148 km
RCS: 3.2066 m2 (large)
Launch date: August 8, 1985
Source: Commonwealth of Independent States (former USSR) (CIS)
Launch site: TYURATAM MISSILE AND SPACE COMPLEX (TTMTR)
aabbcc
Your satellite tracking list
Your tracking list is empty




NASA's NSSDC Master Catalog

Two Line Element Set (TLE):
1 15946U 85070A   19078.39746829 +.00000096 +00000-0 +00000-0 0  9993
2 15946 013.6920 339.1237 0003688 334.5780 208.0094 01.00330610095675
Source of the keplerian elements: AFSPC